sat.trackr.live / text

‹ back to catalog

STARLINK-32671

NORAD 62209 · 2024-229T

PAYLOAD ACTIVE UNKNOWN

§ Identity

Operator
Country
US
Launch date
2024-12-04
Launch site
AFETR
Launch vehicle
Mass (kg)
RCS (m²)

Purposes: comms

External: N2YO · Heavens-Above · Gunter

§ Orbital elements

Epoch: 2026-05-25T04:10:51.933216Z

Period
94.27 min
Inclination
42.9954°
Eccentricity
0.0000325
Mean motion
15.27596224 rev/d
Perigee alt
482.8 km
Apogee alt
483.2 km
Semi-major
6,861.1 km
B*
4.8613e-4
RAAN
199.1982°
Arg perigee
4.7305°
Mean anomaly
355.3550°
Rev number
8,225

§ Raw data

STARLINK-326711 62209U 24229T   26145.17421219  .00013146  00000+0  48613-3 0  99922 62209  42.9954 199.1982 0000325   4.7305 355.3550 15.27596224 82258

JSON: /api/v1/satellites/62209 · /tle

For live sub-satellite position, see the globe view (requires WebGL).

§ Visibility from observer

Set your observer location to see the next 7 days of passes ≥ 10°. The values pass through the URL so the page stays shareable.

No JS? Fill the form by hand. The geolocation button needs JavaScript.